Starlink 11282

operational
NORAD ID: 60992 Int'l Des: 2024-158 Owner: SPXS Country: US Constellation: starlink
LEOCIRCULAR

Starlink 11282について

説明を読み込み中...

リアルタイム位置

3D地球を読み込み中...

次回通過

高度履歴

Altitude vs Time

uPlot chart will show altitude changes over time

軌道要素

1 60992U 24158C 25351.22804524 -.00001918 00000-0 -10969-4 0 9999
2 60992 53.1595 327.7326 0001241 54.0936 306.0197 15.69715150 74648
Epoch: Dec 17, 2025 • Age: 12 hours

現在のステータス

高度 369.7 km
速度 7.69 km/s
衛星直下点 -31.89°S, 51.8°W
打ち上げ日 Sep 5, 2024
運用期間 1.2 years
タイプ internet

技術仕様

分類 Payload
質量 960.00 kg
乾燥質量 910.00 kg
総質量 960.00 kg
長さ 0.30 m
直径 4.10 m
スパン 29.00 m
形状 Box + pan
製造者 SPXS
バスタイプ Starlink V2MD
フェーズステータス In Orbit
所有者/国 SPXS/US

大規模コンステレーション

Loading constellations...